ARIANE 44LP DEB, 26808

Orbit data source: Space-Track

ARIANE 44LP DEB, 26808 is space debris in HEO originally from a launch on Sun, 11 Dec 1988 UTC launched from the French Guiana (FRGUI). Debris objects in space refer to the collection of defunct objects orbiting the Earth. Examples of debris include non-operational satellites, rocket bodies, and fragments generated from explosions, collisions, or faulty payload assembly.

Loading next visibility...
Identifier
26808, 1988-109L
Orbit
HEO
Last TLE update
1 day ago
Origin
Manufacturer
Unknown
Mission
Spacecraft
Bus & Motor
Unknown
Mass
Unknown
Launch date (UTC)
1988-12-11 (37 years ago)
Launch vehicle
Unknown
Launch site
French Guiana (FRGUI)
Object type
Payload
Rocket body
Debris
Shape & HBR
Unknown
Radar Cross Section
Medium (>0.1 m² and <1 m²)

Expand to show TLE details & history

TLE from 1 day ago
0 ARIANE 44LP DEB
1 26808U 88109L   25183.48150190 -.00000099  00000-0 -15324-2 0  9994
2 26808   6.0688 154.7164 7208495 238.9998  99.5298  2.14451460 88910
Epoch: 2025-07-02T11:33Z
TLE epoch observation values (Epoch: 2025-07-02T11:33:21.764Z)
Latitude
3.75758°
Longitude
98.54334°
Altitude
30,950.807 km
Speed
2.38 km/s
True Right ascension
12h 50m 35s
True Declination
3° 45' 12"
Sunlit
Object was in daylight at epoch
Visualization orbit readout
Latitude
5.77359°
Longitude
132.48448°
Altitude
34,787.065 km
Speed
1.917 km/s
Apparent Right ascension
14h 58m 14s
Apparent Declination
0° 04' 58"
Sunlit
Object is in daylight
Visualization observer readout
Local Sidereal Time
01:49:25
Azimuth
334.281° NNW
Elevation
-47.032°
Doppler factor
1
Orbital elements
Apogee altitude
37,341.835 km
Perigee altitude
713.972 km
Semi-major axis
25,406.04 km
Eccentricity
0.72085
Inclination
6.0688°
RAAN
154.7164°
Arg. of periapsis
238.9998°
True anomaly
Unknown
Mean anomaly
99.5298°
Eccentric anomaly
Unknown
Mean motion
0.53597 °/min
Orbital period
671.68 mins
BSTAR
-0.0015324
Loading maneuver chart data...
Loading SW <> Apogee altitude chart data...
Loading historical data...
Loading historical data...
Loading historical data...
Loading historical data...
Loading historical data...
Loading historical data...
Loading historical data...

ARIANE 44LP DEB Visibility forecast

Observer location: undefined°, undefined°

Span
Click to sort rows by Start time (UTC) header in descending order
Start Az.
Max El. time (UTC)
Max El. Az.
Max El.
End time (UTC)
End Az.
527 mins2025-07-03 19:48:29.690Z107.626° ESE2025-07-04 02:37:29.690Z141.069° SSE33.74°2025-07-04 04:35:29.690Z119.292° SE
|